Location: ???????????
(54.6970°N, 39.1477°E)
Time: 03:06:05
(UTC+00:00)

NOSS 3-2 (A) - Pass Details

Date: 19 May 2025
Orbit: 674 x 1530 km, 63.4° (Epoch: 29 May)

Event Time Altitude Azimuth Distance (km) Brightness Sun altitude
Rises 22:04:46 0° 311° (NW) 3,778 7.0 -14.7°
Reaches altitude 10° 22:07:12 10° 308° (NW) 2,937 6.4 -14.6°
Maximum altitude 22:14:13 64° 229° (SW) 1,378 4.0 -14.4°
Drops below altitude 10° 22:22:42 10° 151° (SSE) 3,517 6.0 -14.1°
Enters shadow 22:25:43 - 149° (SSE) 4,520 6.6 -14.0°
